IRIDIUM 125

Last updated on Sun Jun 21 2026 00:03:14 GMT+0000 (Coordinated Universal Time)

1 42964U 17061K 26171.31703463 .00000177 00000+0 56131-4 0 9998 2 42964 86.3970 24.0716 0002086 73.0592 287.0832 14.34215545455303
UTC large
Height (km)
Speed (km/s)
/
Latitude / Longitude
Inclination (degrees)
Orbital Period (minutes)
Azimuth
Elevation
Range (km)
Doppler Factor

Next 0 passes for location: London (51.5072 / 0.1276)

No passes found over London.
IRIDIUM 125